| time (UTC) | temp F | wind direction | speed MPH | gust MPH | rain 1hr in | rain 24hr in | rain mn in | humidity % | barometer mb |
| 20260507060504 | 51 | 290 | 0.0 | 4.0 | 0.00 | 0.23 | 0.00 | 93 | 1005.4 |
| 20260507060004 | 51 | 328 | 0.0 | 3.0 | 0.00 | 0.23 | 0.00 | 94 | 1005.5 |
| 20260507055503 | 51 | 333 | 0.0 | 3.0 | 0.00 | 0.23 | 0.00 | 94 | 1005.4 |
| 20260507055003 | 51 | 302 | 0.0 | 4.0 | 0.00 | 0.23 | 0.00 | 94 | 1005.4 |
| 20260507054503 | 51 | 299 | 0.0 | 4.0 | 0.00 | 0.23 | 0.00 | 94 | 1005.7 |
| 20260507054004 | 51 | 297 | 0.0 | 2.0 | 0.00 | 0.23 | 0.00 | 94 | 1005.6 |
| 20260507053005 | 52 | 233 | 0.0 | 5.0 | 0.00 | 0.23 | 0.00 | 94 | 1005.5 |
| 20260507052503 | 52 | 231 | 0.0 | 3.0 | 0.00 | 0.23 | 0.00 | 95 | 1005.4 |
| 20260507052004 | 52 | 264 | 1.0 | 3.0 | 0.00 | 0.23 | 0.00 | 94 | 1005.6 |
| 20260507051004 | 52 | 284 | 1.0 | 3.0 | 0.00 | 0.23 | 0.00 | 94 | 1005.5 |
| 20260507050504 | 52 | 303 | 0.0 | 5.0 | 0.00 | 0.23 | 0.00 | 94 | 1005.4 |
| 20260507050005 | 52 | 307 | 1.0 | 6.0 | 0.00 | 0.23 | 0.00 | 94 | 1005.1 |
| 20260507045503 | 52 | 307 | 1.0 | 6.0 | 0.00 | 0.23 | 0.00 | 94 | 1005.0 |
| 20260507045003 | 52 | 307 | 0.0 | 6.0 | 0.00 | 0.23 | 0.00 | 94 | 1005.3 |
| 20260507044503 | 53 | 336 | 0.0 | 3.0 | 0.00 | 0.23 | 0.00 | 94 | 1005.3 |
| 20260507044004 | 53 | 327 | 1.0 | 7.0 | 0.00 | 0.23 | 0.00 | 94 | 1005.4 |
| 20260507043503 | 53 | 320 | 1.0 | 8.0 | 0.00 | 0.23 | 0.00 | 94 | 1005.3 |
| 20260507043003 | 53 | 303 | 1.0 | 8.0 | 0.00 | 0.23 | 0.00 | 93 | 1005.4 |
| 20260507042503 | 53 | 238 | 0.0 | 3.0 | 0.00 | 0.23 | 0.00 | 95 | 1005.6 |
| 20260507042004 | 54 | 237 | 0.0 | 3.0 | 0.00 | 0.23 | 0.00 | 95 | 1005.6 |
| 20260507041504 | 54 | 231 | 1.0 | 4.0 | 0.00 | 0.23 | 0.00 | 95 | 1005.6 |
| 20260507041004 | 54 | 239 | 1.0 | 4.0 | 0.00 | 0.23 | 0.00 | 95 | 1005.6 |
| 20260507040503 | 54 | 277 | 0.0 | 2.0 | 0.00 | 0.23 | 0.00 | 95 | 1005.2 |
| 20260507040005 | 54 | 283 | 0.0 | 3.0 | 0.00 | 0.23 | 0.00 | 95 | 1005.1 |
| 20260507035503 | 54 | 286 | 0.0 | 3.0 | 0.01 | 0.23 | 0.23 | 95 | 1005.1 |
| 20260507035003 | 55 | 250 | 1.0 | 4.0 | 0.01 | 0.23 | 0.23 | 95 | 1004.9 |
| 20260507034503 | 55 | 238 | 1.0 | 4.0 | 0.01 | 0.23 | 0.23 | 94 | 1004.9 |
| 20260507034004 | 56 | 278 | 1.0 | 9.0 | 0.01 | 0.23 | 0.23 | 94 | 1004.8 |
| 20260507033503 | 56 | 286 | 2.0 | 9.0 | 0.01 | 0.23 | 0.23 | 94 | 1004.6 |
| 20260507033003 | 56 | 302 | 2.0 | 13.0 | 0.01 | 0.23 | 0.23 | 94 | 1004.7 |
| 20260507032504 | 57 | 305 | 2.0 | 13.0 | 0.01 | 0.23 | 0.23 | 94 | 1004.5 |
| 20260507032003 | 57 | 297 | 1.0 | 7.0 | 0.01 | 0.23 | 0.23 | 95 | 1004.6 |
| 20260507031504 | 58 | 317 | 1.0 | 5.0 | 0.01 | 0.23 | 0.23 | 95 | 1004.7 |
| 20260507030503 | 59 | 285 | 2.0 | 7.0 | 0.01 | 0.23 | 0.23 | 96 | 1004.5 |
| 20260507030004 | 59 | 270 | 1.0 | 7.0 | 0.01 | 0.23 | 0.23 | 97 | 1004.4 |
| 20260507025503 | 59 | 315 | 1.0 | 4.0 | 0.00 | 0.22 | 0.22 | 97 | 1004.2 |
| 20260507025003 | 59 | 269 | 1.0 | 4.0 | 0.00 | 0.22 | 0.22 | 97 | 1004.1 |
| 20260507024504 | 59 | 243 | 1.0 | 5.0 | 0.00 | 0.22 | 0.22 | 97 | 1004.1 |
| 20260507024004 | 59 | 230 | 1.0 | 5.0 | 0.00 | 0.22 | 0.22 | 97 | 1004.0 |
| 20260507023004 | 59 | 231 | 1.0 | 8.0 | 0.00 | 0.22 | 0.22 | 96 | 1003.9 |
| 20260507021503 | 59 | 229 | 2.0 | 8.0 | 0.00 | 0.22 | 0.22 | 96 | 1003.8 |
| 20260507021004 | 59 | 240 | 2.0 | 8.0 | 0.00 | 0.22 | 0.22 | 96 | 1003.8 |
| 20260507020503 | 59 | 242 | 2.0 | 8.0 | 0.00 | 0.22 | 0.22 | 96 | 1003.7 |
| 20260507020004 | 59 | 225 | 2.0 | 8.0 | 0.00 | 0.22 | 0.22 | 96 | 1003.9 |
| 20260507015503 | 59 | 203 | 1.0 | 8.0 | 0.00 | 0.22 | 0.22 | 96 | 1003.9 |
| 20260507015004 | 59 | 200 | 1.0 | 8.0 | 0.00 | 0.22 | 0.22 | 96 | 1004.0 |
| 20260507014503 | 59 | 208 | 2.0 | 6.0 | 0.00 | 0.22 | 0.22 | 96 | 1004.0 |
| 20260507014004 | 59 | 226 | 2.0 | 6.0 | 0.00 | 0.22 | 0.22 | 96 | 1004.0 |
| 20260507013503 | 59 | 253 | 2.0 | 8.0 | 0.00 | 0.22 | 0.22 | 96 | 1004.0 |
| 20260507013005 | 59 | 251 | 2.0 | 9.0 | 0.00 | 0.22 | 0.22 | 96 | 1004.0 |
| 20260507012503 | 59 | 221 | 2.0 | 9.0 | 0.00 | 0.22 | 0.22 | 96 | 1004.0 |
| 20260507012004 | 59 | 214 | 1.0 | 7.0 | 0.00 | 0.22 | 0.22 | 97 | 1003.9 |
| 20260507011003 | 59 | 243 | 2.0 | 7.0 | 0.00 | 0.22 | 0.22 | 96 | 1004.0 |
| 20260507010503 | 59 | 229 | 2.0 | 7.0 | 0.00 | 0.22 | 0.22 | 96 | 1004.1 |
| 20260507010004 | 59 | 219 | 1.0 | 6.0 | 0.00 | 0.22 | 0.22 | 96 | 1004.1 |
| 20260507005503 | 59 | 239 | 1.0 | 6.0 | 0.00 | 0.22 | 0.22 | 96 | 1004.1 |
| 20260507005004 | 59 | 231 | 2.0 | 7.0 | 0.00 | 0.22 | 0.22 | 96 | 1004.1 |
| 20260507004503 | 59 | 237 | 2.0 | 8.0 | 0.00 | 0.22 | 0.22 | 96 | 1004.0 |
| 20260507003504 | 59 | 249 | 2.0 | 10.0 | 0.01 | 0.22 | 0.22 | 96 | 1003.8 |
| 20260507003004 | 59 | 233 | 2.0 | 10.0 | 0.01 | 0.22 | 0.22 | 96 | 1003.8 |
| 20260507002504 | 59 | 214 | 2.0 | 9.0 | 0.01 | 0.22 | 0.22 | 97 | 1003.9 |
| 20260507002004 | 59 | 210 | 1.0 | 7.0 | 0.02 | 0.22 | 0.22 | 96 | 1003.8 |
| 20260507001503 | 59 | 206 | 2.0 | 7.0 | 0.03 | 0.22 | 0.22 | 96 | 1003.7 |
| 20260507001004 | 59 | 219 | 2.0 | 7.0 | 0.03 | 0.22 | 0.22 | 97 | 1003.7 |
| 20260507000503 | 60 | 228 | 1.0 | 6.0 | 0.04 | 0.22 | 0.22 | 97 | 1003.8 |
| 20260507000004 | 60 | 219 | 2.0 | 6.0 | 0.05 | 0.22 | 0.22 | 96 | 1003.8 |
| 20260506235503 | 60 | 227 | 2.0 | 9.0 | 0.05 | 0.22 | 0.22 | 96 | 1003.8 |
| 20260506235004 | 60 | 243 | 1.0 | 9.0 | 0.05 | 0.22 | 0.22 | 96 | 1003.7 |
| 20260506234503 | 60 | 248 | 1.0 | 4.0 | 0.05 | 0.22 | 0.22 | 96 | 1003.6 |
| 20260506233503 | 60 | 242 | 1.0 | 9.0 | 0.04 | 0.21 | 0.21 | 96 | 1003.7 |
| 20260506233004 | 60 | 247 | 1.0 | 9.0 | 0.04 | 0.21 | 0.21 | 96 | 1003.7 |
| 20260506232503 | 60 | 248 | 1.0 | 6.0 | 0.04 | 0.21 | 0.21 | 96 | 1003.7 |
| 20260506232004 | 60 | 233 | 1.0 | 5.0 | 0.04 | 0.20 | 0.20 | 96 | 1003.8 |
| 20260506231503 | 60 | 225 | 1.0 | 5.0 | 0.03 | 0.19 | 0.19 | 96 | 1003.9 |
| 20260506231004 | 60 | 208 | 1.0 | 5.0 | 0.04 | 0.19 | 0.19 | 96 | 1003.9 |
| 20260506230503 | 60 | 199 | 1.0 | 8.0 | 0.03 | 0.18 | 0.18 | 96 | 1004.1 |
| 20260506230003 | 60 | 207 | 1.0 | 8.0 | 0.03 | 0.17 | 0.17 | 96 | 1004.1 |
| 20260506225504 | 60 | 224 | 1.0 | 7.0 | 0.04 | 0.17 | 0.17 | 96 | 1004.0 |
| 20260506225003 | 60 | 259 | 2.0 | 7.0 | 0.04 | 0.17 | 0.17 | 95 | 1004.0 |
| 20260506224504 | 60 | 219 | 2.0 | 8.0 | 0.04 | 0.17 | 0.17 | 95 | 1004.0 |
| 20260506224004 | 60 | 226 | 2.0 | 8.0 | 0.05 | 0.17 | 0.17 | 95 | 1004.0 |
| 20260506223504 | 60 | 262 | 1.0 | 8.0 | 0.05 | 0.17 | 0.17 | 96 | 1004.1 |
| 20260506223004 | 60 | 243 | 1.0 | 8.0 | 0.05 | 0.17 | 0.17 | 96 | 1004.1 |
| 20260506222503 | 60 | 238 | 1.0 | 8.0 | 0.06 | 0.17 | 0.17 | 95 | 1004.2 |
| 20260506222004 | 60 | 247 | 1.0 | 4.0 | 0.05 | 0.16 | 0.16 | 95 | 1004.2 |
| 20260506221504 | 60 | 218 | 1.0 | 4.0 | 0.04 | 0.15 | 0.15 | 96 | 1004.3 |
| 20260506221004 | 60 | 201 | 1.0 | 6.0 | 0.04 | 0.15 | 0.15 | 96 | 1004.2 |
| 20260506220503 | 60 | 210 | 1.0 | 8.0 | 0.04 | 0.15 | 0.15 | 95 | 1004.4 |
| 20260506220004 | 60 | 239 | 1.0 | 8.0 | 0.03 | 0.14 | 0.14 | 95 | 1004.3 |
| 20260506215503 | 60 | 260 | 1.0 | 8.0 | 0.03 | 0.13 | 0.13 | 95 | 1004.3 |
| 20260506215004 | 60 | 221 | 2.0 | 9.0 | 0.03 | 0.13 | 0.13 | 95 | 1004.4 |
| 20260506214503 | 60 | 210 | 2.0 | 9.0 | 0.03 | 0.12 | 0.12 | 94 | 1004.4 |
| 20260506214004 | 60 | 214 | 2.0 | 9.0 | 0.03 | 0.12 | 0.12 | 95 | 1004.5 |
| 20260506213503 | 60 | 194 | 2.0 | 9.0 | 0.03 | 0.12 | 0.12 | 94 | 1004.5 |
| 20260506213004 | 60 | 209 | 2.0 | 11.0 | 0.03 | 0.12 | 0.12 | 94 | 1004.5 |
| 20260506212503 | 60 | 241 | 2.0 | 11.0 | 0.03 | 0.11 | 0.11 | 94 | 1004.5 |
| 20260506212004 | 60 | 246 | 1.0 | 7.0 | 0.04 | 0.11 | 0.11 | 94 | 1004.6 |
| 20260506211503 | 61 | 232 | 2.0 | 12.0 | 0.04 | 0.11 | 0.11 | 94 | 1004.7 |
| 20260506211004 | 61 | 222 | 2.0 | 12.0 | 0.04 | 0.11 | 0.11 | 94 | 1004.8 |
| 20260506210503 | 61 | 218 | 3.0 | 9.0 | 0.05 | 0.11 | 0.11 | 93 | 1004.8 |
| 20260506210004 | 61 | 234 | 3.0 | 19.0 | 0.05 | 0.11 | 0.11 | 94 | 1004.8 |
| 20260506204004 | 62 | 193 | 1.0 | 6.0 | 0.03 | 0.09 | 0.09 | 94 | 1004.9 |
| 20260506203503 | 62 | 197 | 1.0 | 6.0 | 0.03 | 0.09 | 0.09 | 94 | 1004.9 |
| 20260506203004 | 62 | 215 | 1.0 | 6.0 | 0.03 | 0.09 | 0.09 | 93 | 1004.9 |
| 20260506202503 | 62 | 262 | 1.0 | 3.0 | 0.03 | 0.08 | 0.08 | 93 | 1004.9 |
| 20260506202004 | 62 | 250 | 1.0 | 5.0 | 0.02 | 0.07 | 0.07 | 93 | 1004.9 |
| 20260506201004 | 62 | 212 | 1.0 | 7.0 | 0.03 | 0.07 | 0.07 | 92 | 1004.9 |
| 20260506200503 | 62 | 231 | 1.0 | 7.0 | 0.02 | 0.06 | 0.06 | 93 | 1004.9 |
| 20260506200004 | 63 | 202 | 0.0 | 4.0 | 0.03 | 0.06 | 0.06 | 93 | 1004.9 |
| 20260506195503 | 63 | 193 | 0.0 | 4.0 | 0.03 | 0.06 | 0.06 | 93 | 1004.9 |
| 20260506194503 | 63 | 147 | 0.0 | 2.0 | 0.04 | 0.06 | 0.06 | 94 | 1004.8 |
| 20260506194003 | 63 | 202 | 1.0 | 5.0 | 0.04 | 0.06 | 0.06 | 93 | 1004.9 |
| 20260506193003 | 63 | 204 | 0.0 | 6.0 | 0.05 | 0.06 | 0.06 | 93 | 1004.7 |
| 20260506192504 | 64 | 213 | 0.0 | 1.0 | 0.04 | 0.05 | 0.05 | 94 | 1004.8 |
| 20260506192004 | 64 | 213 | 0.0 | 1.0 | 0.04 | 0.05 | 0.05 | 93 | 1004.9 |
| 20260506191004 | 64 | 218 | 0.0 | 2.0 | 0.04 | 0.04 | 0.04 | 91 | 1005.1 |
| 20260506190503 | 64 | 251 | 0.0 | 1.0 | 0.04 | 0.04 | 0.04 | 90 | 1005.3 |
| 20260506190004 | 64 | 251 | 0.0 | 1.0 | 0.03 | 0.03 | 0.03 | 90 | 1005.4 |
| 20260506185503 | 65 | 251 | 0.0 | 1.0 | 0.03 | 0.03 | 0.03 | 89 | 1005.3 |
| 20260506185004 | 65 | 250 | 0.0 | 1.0 | 0.03 | 0.03 | 0.03 | 87 | 1005.3 |
| 20260506184504 | 66 | 248 | 0.0 | 2.0 | 0.02 | 0.02 | 0.02 | 85 | 1005.5 |
| 20260506184004 | 66 | 251 | 1.0 | 8.0 | 0.02 | 0.02 | 0.02 | 83 | 1005.5 |
| 20260506183005 | 68 | 250 | 2.0 | 9.0 | 0.01 | 0.01 | 0.01 | 76 | 1005.5 |
| 20260506181503 | 70 | 239 | 4.0 | 14.0 | 0.01 | 0.01 | 0.01 | 65 | 1005.1 |
| 20260506181004 | 70 | 244 | 5.0 | 21.0 | 0.00 | 0.00 | 0.00 | 64 | 1005.2 |
| 20260506180503 | 71 | 248 | 4.0 | 21.0 | 0.00 | 0.00 | 0.00 | 61 | 1005.1 |
| 20260506180004 | 72 | 234 | 3.0 | 13.0 | 0.00 | 0.00 | 0.00 | 58 | 1005.3 |
| 20260506175504 | 72 | 219 | 4.0 | 13.0 | 0.00 | 0.00 | 0.00 | 58 | 1005.2 |
| 20260506175003 | 72 | 214 | 3.0 | 13.0 | 0.00 | 0.00 | 0.00 | 57 | 1005.2 |
| 20260506174504 | 72 | 214 | 3.0 | 10.0 | 0.00 | 0.00 | 0.00 | 57 | 1005.1 |
| 20260506174004 | 72 | 218 | 4.0 | 10.0 | 0.00 | 0.00 | 0.00 | 57 | 1005.1 |
| 20260506173503 | 73 | 238 | 4.0 | 17.0 | 0.00 | 0.00 | 0.00 | 56 | 1005.2 |
| 20260506173004 | 73 | 246 | 5.0 | 17.0 | 0.00 | 0.00 | 0.00 | 56 | 1005.2 |
| 20260506172503 | 73 | 227 | 4.0 | 15.0 | 0.00 | 0.00 | 0.00 | 56 | 1005.2 |
| 20260506171003 | 73 | 243 | 3.0 | 10.0 | 0.00 | 0.00 | 0.00 | 57 | 1005.4 |
| 20260506170504 | 73 | 218 | 3.0 | 10.0 | 0.00 | 0.00 | 0.00 | 56 | 1005.5 |
| 20260506170004 | 73 | 173 | 3.0 | 10.0 | 0.00 | 0.00 | 0.00 | 58 | 1005.5 |
| 20260506165503 | 73 | 198 | 4.0 | 10.0 | 0.00 | 0.00 | 0.00 | 57 | 1005.7 |
| 20260506165004 | 73 | 228 | 3.0 | 9.0 | 0.00 | 0.00 | 0.00 | 58 | 1005.6 |
| 20260506164504 | 72 | 234 | 3.0 | 11.0 | 0.00 | 0.00 | 0.00 | 58 | 1005.8 |
| 20260506164004 | 72 | 262 | 4.0 | 14.0 | 0.00 | 0.00 | 0.00 | 60 | 1005.8 |
| 20260506163503 | 72 | 261 | 4.0 | 14.0 | 0.00 | 0.00 | 0.00 | 58 | 1005.8 |
| 20260506163004 | 72 | 249 | 2.0 | 11.0 | 0.00 | 0.00 | 0.00 | 60 | 1005.9 |
| 20260506162503 | 72 | 250 | 2.0 | 11.0 | 0.00 | 0.00 | 0.00 | 61 | 1006.0 |
| 20260506161504 | 72 | 246 | 3.0 | 12.0 | 0.00 | 0.00 | 0.00 | 61 | 1006.2 |
| 20260506160503 | 71 | 225 | 2.0 | 8.0 | 0.00 | 0.00 | 0.00 | 61 | 1006.5 |
| 20260506160004 | 71 | 236 | 3.0 | 12.0 | 0.00 | 0.00 | 0.00 | 62 | 1006.7 |
| 20260506155503 | 71 | 244 | 3.0 | 14.0 | 0.00 | 0.00 | 0.00 | 62 | 1006.7 |
| 20260506154503 | 71 | 253 | 5.0 | 17.0 | 0.00 | 0.00 | 0.00 | 61 | 1006.9 |
| 20260506154004 | 71 | 231 | 4.0 | 13.0 | 0.00 | 0.00 | 0.00 | 61 | 1007.1 |
| 20260506153503 | 71 | 217 | 2.0 | 9.0 | 0.00 | 0.00 | 0.00 | 62 | 1007.2 |
| 20260506152504 | 72 | 233 | 4.0 | 15.0 | 0.00 | 0.00 | 0.00 | 62 | 1007.1 |
| 20260506152004 | 71 | 227 | 4.0 | 15.0 | 0.00 | 0.00 | 0.00 | 63 | 1007.2 |
| 20260506151003 | 71 | 208 | 2.0 | 8.0 | 0.00 | 0.00 | 0.00 | 64 | 1007.1 |
| 20260506150504 | 71 | 208 | 2.0 | 11.0 | 0.00 | 0.00 | 0.00 | 65 | 1007.1 |
| 20260506150005 | 71 | 212 | 3.0 | 11.0 | 0.00 | 0.00 | 0.00 | 65 | 1007.4 |
| 20260506145503 | 70 | 227 | 5.0 | 16.0 | 0.00 | 0.00 | 0.00 | 64 | 1007.4 |
| 20260506145004 | 70 | 239 | 4.0 | 16.0 | 0.00 | 0.00 | 0.00 | 66 | 1007.4 |
| 20260506144503 | 70 | 248 | 3.0 | 14.0 | 0.00 | 0.00 | 0.00 | 66 | 1007.2 |
| 20260506144003 | 70 | 236 | 3.0 | 14.0 | 0.00 | 0.00 | 0.00 | 67 | 1007.2 |
| 20260506143503 | 70 | 217 | 3.0 | 11.0 | 0.00 | 0.00 | 0.00 | 67 | 1007.2 |
| 20260506143004 | 69 | 211 | 3.0 | 11.0 | 0.00 | 0.00 | 0.00 | 67 | 1007.3 |
| 20260506142503 | 70 | 223 | 3.0 | 10.0 | 0.00 | 0.00 | 0.00 | 67 | 1007.3 |
| 20260506142004 | 69 | 242 | 2.0 | 8.0 | 0.00 | 0.00 | 0.00 | 69 | 1007.1 |
| 20260506141503 | 69 | 238 | 3.0 | 12.0 | 0.00 | 0.00 | 0.00 | 69 | 1006.9 |
| 20260506140503 | 68 | 249 | 3.0 | 11.0 | 0.00 | 0.00 | 0.00 | 70 | 1007.2 |
| 20260506140004 | 67 | 278 | 2.0 | 8.0 | 0.00 | 0.00 | 0.00 | 71 | 1007.2 |
| 20260506135503 | 67 | 251 | 3.0 | 12.0 | 0.00 | 0.00 | 0.00 | 72 | 1007.1 |
| 20260506135004 | 66 | 220 | 3.0 | 12.0 | 0.00 | 0.00 | 0.00 | 72 | 1007.3 |
| 20260506134004 | 66 | 236 | 3.0 | 11.0 | 0.00 | 0.00 | 0.00 | 72 | 1007.4 |
| 20260506133503 | 66 | 233 | 3.0 | 11.0 | 0.00 | 0.00 | 0.00 | 72 | 1007.6 |
| 20260506133003 | 66 | 228 | 3.0 | 15.0 | 0.00 | 0.00 | 0.00 | 73 | 1007.6 |
| 20260506132503 | 66 | 223 | 3.0 | 15.0 | 0.00 | 0.00 | 0.00 | 73 | 1007.6 |
| 20260506132004 | 66 | 229 | 4.0 | 11.0 | 0.00 | 0.00 | 0.00 | 73 | 1007.6 |
| 20260506131503 | 66 | 229 | 3.0 | 8.0 | 0.00 | 0.00 | 0.00 | 73 | 1007.6 |
| 20260506131003 | 66 | 226 | 2.0 | 7.0 | 0.00 | 0.00 | 0.00 | 73 | 1007.6 |
| 20260506130005 | 66 | 251 | 4.0 | 13.0 | 0.00 | 0.00 | 0.00 | 73 | 1007.7 |
| 20260506125004 | 66 | 244 | 3.0 | 9.0 | 0.00 | 0.00 | 0.00 | 74 | 1007.8 |
| 20260506124004 | 65 | 244 | 3.0 | 10.0 | 0.00 | 0.00 | 0.00 | 74 | 1007.5 |
| 20260506123503 | 65 | 238 | 3.0 | 10.0 | 0.00 | 0.00 | 0.00 | 74 | 1007.5 |
| 20260506123004 | 65 | 222 | 3.0 | 12.0 | 0.00 | 0.00 | 0.00 | 74 | 1007.6 |
| 20260506122503 | 65 | 231 | 3.0 | 12.0 | 0.00 | 0.00 | 0.00 | 74 | 1007.8 |
| 20260506121503 | 65 | 242 | 2.0 | 10.0 | 0.00 | 0.00 | 0.00 | 74 | 1007.8 |
| 20260506121003 | 64 | 256 | 2.0 | 8.0 | 0.00 | 0.00 | 0.00 | 76 | 1007.8 |
| 20260506120004 | 63 | 249 | 1.0 | 7.0 | 0.00 | 0.00 | 0.00 | 77 | 1007.9 |
| 20260506115503 | 63 | 242 | 1.0 | 7.0 | 0.00 | 0.00 | 0.00 | 76 | 1007.9 |
| 20260506115003 | 63 | 244 | 1.0 | 7.0 | 0.00 | 0.00 | 0.00 | 77 | 1008.0 |
| 20260506114504 | 63 | 245 | 1.0 | 7.0 | 0.00 | 0.00 | 0.00 | 77 | 1008.0 |
| 20260506114003 | 63 | 252 | 2.0 | 7.0 | 0.00 | 0.00 | 0.00 | 77 | 1008.0 |
| 20260506113503 | 63 | 231 | 2.0 | 9.0 | 0.00 | 0.00 | 0.00 | 77 | 1008.1 |
| 20260506113004 | 63 | 209 | 2.0 | 9.0 | 0.00 | 0.00 | 0.00 | 77 | 1008.1 |
| 20260506112504 | 62 | 215 | 2.0 | 10.0 | 0.00 | 0.00 | 0.00 | 77 | 1008.1 |
| 20260506112003 | 62 | 226 | 3.0 | 10.0 | 0.00 | 0.00 | 0.00 | 77 | 1008.2 |
| 20260506111503 | 62 | 235 | 2.0 | 10.0 | 0.00 | 0.00 | 0.00 | 78 | 1008.1 |
| 20260506111004 | 62 | 207 | 2.0 | 10.0 | 0.00 | 0.00 | 0.00 | 78 | 1008.0 |
| 20260506110503 | 62 | 179 | 1.0 | 10.0 | 0.00 | 0.00 | 0.00 | 78 | 1008.0 |
| 20260506105504 | 61 | 239 | 2.0 | 8.0 | 0.00 | 0.00 | 0.00 | 79 | 1008.3 |
| 20260506105004 | 61 | 223 | 2.0 | 8.0 | 0.00 | 0.00 | 0.00 | 79 | 1008.4 |
| 20260506104503 | 61 | 218 | 2.0 | 7.0 | 0.00 | 0.00 | 0.00 | 79 | 1008.3 |
| 20260506104003 | 61 | 224 | 2.0 | 5.0 | 0.00 | 0.00 | 0.00 | 79 | 1008.2 |
| 20260506103504 | 61 | 214 | 1.0 | 7.0 | 0.00 | 0.00 | 0.00 | 78 | 1008.1 |
| 20260506103004 | 61 | 216 | 2.0 | 7.0 | 0.00 | 0.00 | 0.00 | 78 | 1008.0 |
| 20260506102503 | 61 | 218 | 2.0 | 8.0 | 0.00 | 0.00 | 0.00 | 78 | 1008.1 |
| 20260506100503 | 61 | 245 | 1.0 | 9.0 | 0.00 | 0.00 | 0.00 | 78 | 1008.2 |
| 20260506100004 | 61 | 275 | 1.0 | 9.0 | 0.00 | 0.00 | 0.00 | 78 | 1008.2 |
| 20260506094503 | 61 | 205 | 1.0 | 5.0 | 0.00 | 0.00 | 0.00 | 78 | 1007.9 |
| 20260506094004 | 61 | 200 | 1.0 | 5.0 | 0.00 | 0.00 | 0.00 | 77 | 1007.9 |
| 20260506093503 | 61 | 194 | 2.0 | 5.0 | 0.00 | 0.00 | 0.00 | 77 | 1008.1 |
| 20260506093004 | 61 | 240 | 1.0 | 8.0 | 0.00 | 0.00 | 0.00 | 77 | 1008.2 |
| 20260506092503 | 61 | 257 | 2.0 | 8.0 | 0.00 | 0.00 | 0.00 | 77 | 1008.1 |
| 20260506092004 | 61 | 234 | 2.0 | 6.0 | 0.00 | 0.00 | 0.00 | 77 | 1008.1 |
| 20260506091503 | 61 | 217 | 1.0 | 6.0 | 0.00 | 0.00 | 0.00 | 76 | 1008.0 |
| 20260506091003 | 62 | 220 | 2.0 | 7.0 | 0.00 | 0.00 | 0.00 | 76 | 1008.0 |
| 20260506090504 | 62 | 236 | 2.0 | 10.0 | 0.00 | 0.00 | 0.00 | 76 | 1007.9 |
| 20260506090004 | 62 | 239 | 2.0 | 10.0 | 0.00 | 0.00 | 0.00 | 75 | 1008.0 |
| 20260506085504 | 62 | 229 | 2.0 | 9.0 | 0.00 | 0.00 | 0.00 | 75 | 1008.0 |
| 20260506085004 | 62 | 236 | 2.0 | 7.0 | 0.00 | 0.00 | 0.00 | 75 | 1008.0 |
| 20260506084503 | 62 | 248 | 2.0 | 9.0 | 0.00 | 0.00 | 0.00 | 75 | 1008.0 |
| 20260506084003 | 62 | 236 | 3.0 | 10.0 | 0.00 | 0.00 | 0.00 | 75 | 1008.0 |
| 20260506083503 | 62 | 237 | 2.0 | 10.0 | 0.00 | 0.00 | 0.00 | 74 | 1008.0 |
| 20260506083004 | 62 | 247 | 2.0 | 10.0 | 0.00 | 0.00 | 0.00 | 74 | 1008.0 |
| 20260506082503 | 62 | 240 | 2.0 | 10.0 | 0.00 | 0.00 | 0.00 | 74 | 1007.9 |
| 20260506081504 | 62 | 223 | 2.0 | 9.0 | 0.00 | 0.00 | 0.00 | 73 | 1007.9 |
| 20260506081004 | 62 | 230 | 1.0 | 7.0 | 0.00 | 0.00 | 0.00 | 73 | 1007.9 |
| 20260506080503 | 63 | 237 | 2.0 | 7.0 | 0.00 | 0.00 | 0.00 | 72 | 1007.9 |
| 20260506073504 | 63 | 261 | 2.0 | 8.0 | 0.00 | 0.00 | 0.00 | 71 | 1007.7 |
| 20260506073004 | 63 | 211 | 2.0 | 8.0 | 0.00 | 0.00 | 0.00 | 71 | 1007.7 |
| 20260506072003 | 63 | 239 | 2.0 | 8.0 | 0.00 | 0.00 | 0.00 | 70 | 1007.6 |
| 20260506071503 | 63 | 231 | 1.0 | 8.0 | 0.00 | 0.00 | 0.00 | 70 | 1007.5 |
| 20260506071004 | 63 | 233 | 1.0 | 5.0 | 0.00 | 0.00 | 0.00 | 70 | 1007.4 |
| 20260506070503 | 63 | 244 | 2.0 | 9.0 | 0.00 | 0.00 | 0.00 | 70 | 1007.4 |
| 20260506062003 | 64 | 251 | 2.0 | 5.0 | 0.00 | 0.00 | 0.00 | 67 | 1007.4 |
| 20260506061503 | 63 | 254 | 2.0 | 7.0 | 0.00 | 0.00 | 0.00 | 68 | 1007.5 |
| 20260506061003 | 63 | 260 | 1.0 | 7.0 | 0.00 | 0.00 | 0.00 | 67 | 1007.4 |